Time,TemperatureF,DewpointF,PressureIn,WindDirection,WindDirectionDegrees,WindSpeedMPH,WindSpeedGustMPH,Humidity,HourlyPrecipIn,Conditions,Clouds,dailyrainin,SolarRadiationWatts/m^2,SoftwareType,DateUTC
2014-01-24 00:05:00,8.3,-1.4,30.48,NNW,327,3.0,5.0,64,0.00,,,0.00,0,Wunderground v.1.15,2014-01-24 05:05:00,
2014-01-24 00:10:00,8.6,-1.4,30.48,NW,326,2.0,2.0,63,0.00,,,0.00,0,Wunderground v.1.15,2014-01-24 05:10:00,
2014-01-24 00:15:00,8.7,-1.3,30.49,WNW,303,2.0,2.0,63,0.00,,,0.00,0,Wunderground v.1.15,2014-01-24 05:15:00,
2014-01-24 00:25:00,9.0,-1.4,30.49,WNW,294,2.0,4.0,62,0.00,,,0.00,0,Wunderground v.1.15,2014-01-24 05:25:00,
2014-01-24 00:30:00,8.9,-1.5,30.48,WNW,299,2.0,2.0,62,0.00,,,0.00,0,Wunderground v.1.15,2014-01-24 05:30:00,
2014-01-24 00:40:00,8.5,-1.9,30.48,NNW,333,2.0,3.0,62,0.00,,,0.00,0,Wunderground v.1.15,2014-01-24 05:40:00,
2014-01-24 00:50:00,8.5,-1.5,30.48,NW,310,4.0,4.0,63,0.00,,,0.00,0,Wunderground v.1.15,2014-01-24 05:50:00,
2014-01-24 00:55:00,8.7,-1.3,30.47,North,354,5.0,5.0,63,0.00,,,0.00,0,Wunderground v.1.15,2014-01-24 05:55:00,
2014-01-24 01:05:00,8.8,-1.2,30.47,NNW,327,5.0,8.0,63,0.00,,,0.00,0,Wunderground v.1.15,2014-01-24 06:05:00,
2014-01-24 01:10:00,8.9,-1.5,30.47,NNW,331,5.0,6.0,62,0.00,,,0.00,0,Wunderground v.1.15,2014-01-24 06:10:00,
2014-01-24 01:20:00,8.8,-1.6,30.47,NW,316,5.0,5.0,62,0.00,,,0.00,0,Wunderground v.1.15,2014-01-24 06:20:00,
2014-01-24 01:30:00,8.5,-1.9,30.47,NW,307,5.0,5.0,62,0.00,,,0.00,0,Wunderground v.1.15,2014-01-24 06:30:00,
2014-01-24 01:40:00,8.5,-1.5,30.47,NNW,334,5.0,5.0,63,0.00,,,0.00,0,Wunderground v.1.15,2014-01-24 06:40:00,
2014-01-24 01:50:00,8.3,-2.1,30.48,NW,315,4.0,4.0,62,0.00,,,0.00,0,Wunderground v.1.15,2014-01-24 06:50:00,
2014-01-24 02:00:00,8.2,-1.8,30.48,NW,323,3.0,3.0,63,0.00,,,0.00,0,Wunderground v.1.15,2014-01-24 07:00:00,
2014-01-24 02:05:00,8.1,-1.9,30.48,NW,318,3.0,3.0,63,0.00,,,0.00,0,Wunderground v.1.15,2014-01-24 07:05:00,
2014-01-24 02:15:00,8.0,-2.0,30.48,WNW,290,2.0,5.0,63,0.00,,,0.00,0,Wunderground v.1.15,2014-01-24 07:15:00,
2014-01-24 02:25:00,7.6,-2.4,30.48,WNW,301,2.0,3.0,63,0.00,,,0.00,0,Wunderground v.1.15,2014-01-24 07:25:00,
2014-01-24 02:30:00,7.6,-2.4,30.49,NNW,341,2.0,2.0,63,0.00,,,0.00,0,Wunderground v.1.15,2014-01-24 07:30:00,
2014-01-24 02:40:00,7.3,-2.7,30.49,West,265,1.0,1.0,63,0.00,,,0.00,0,Wunderground v.1.15,2014-01-24 07:40:00,
2014-01-24 02:50:00,7.1,-2.5,30.50,WNW,284,1.0,1.0,64,0.00,,,0.00,0,Wunderground v.1.15,2014-01-24 07:50:00,
2014-01-24 02:55:00,6.9,-2.7,30.50,West,266,1.0,3.0,64,0.00,,,0.00,0,Wunderground v.1.15,2014-01-24 07:55:00,
2014-01-24 03:05:00,6.5,-2.8,30.50,West,270,1.0,1.0,65,0.00,,,0.00,0,Wunderground v.1.15,2014-01-24 08:05:00,
2014-01-24 03:15:00,6.3,-2.6,30.50,SW,229,2.0,2.0,66,0.00,,,0.00,0,Wunderground v.1.15,2014-01-24 08:15:00,
2014-01-24 03:25:00,5.8,-3.1,30.50,SSW,192,1.0,1.0,66,0.00,,,0.00,0,Wunderground v.1.15,2014-01-24 08:25:00,
2014-01-24 03:35:00,5.2,-3.4,30.50,South,185,2.0,2.0,67,0.00,,,0.00,0,Wunderground v.1.15,2014-01-24 08:35:00,
2014-01-24 03:40:00,5.1,-3.2,30.50,SW,233,2.0,2.0,68,0.00,,,0.00,0,Wunderground v.1.15,2014-01-24 08:40:00,
2014-01-24 03:50:00,5.3,-3.0,30.51,WSW,251,2.0,2.0,68,0.00,,,0.00,0,Wunderground v.1.15,2014-01-24 08:50:00,
2014-01-24 04:00:00,5.2,-3.4,30.51,SSW,210,0.0,1.0,67,0.00,,,0.00,0,Wunderground v.1.15,2014-01-24 09:00:00,
2014-01-24 04:10:00,5.0,-3.6,30.51,South,190,0.0,0.0,67,0.00,,,0.00,0,Wunderground v.1.15,2014-01-24 09:10:00,
2014-01-24 04:20:00,4.4,-3.8,30.51,South,191,0.0,1.0,68,0.00,,,0.00,0,Wunderground v.1.15,2014-01-24 09:20:00,
2014-01-24 04:25:00,4.1,-4.1,30.51,WNW,299,1.0,3.0,68,0.00,,,0.00,0,Wunderground v.1.15,2014-01-24 09:25:00,
2014-01-24 04:35:00,4.3,-3.3,30.51,WNW,297,2.0,4.0,70,0.00,,,0.00,0,Wunderground v.1.15,2014-01-24 09:35:00,
2014-01-24 04:45:00,5.2,-3.1,30.50,NNW,335,4.0,4.0,68,0.00,,,0.00,0,Wunderground v.1.15,2014-01-24 09:45:00,
2014-01-24 04:55:00,5.8,-3.1,30.50,WNW,288,4.0,6.0,66,0.00,,,0.00,0,Wunderground v.1.15,2014-01-24 09:55:00,
2014-01-24 05:05:00,6.3,-3.0,30.51,NW,320,5.0,6.0,65,0.00,,,0.00,0,Wunderground v.1.15,2014-01-24 10:05:00,
2014-01-24 05:10:00,6.4,-2.9,30.51,WNW,295,4.0,5.0,65,0.00,,,0.00,0,Wunderground v.1.15,2014-01-24 10:10:00,
2014-01-24 05:20:00,6.2,-3.4,30.52,NNW,343,3.0,4.0,64,0.00,,,0.00,0,Wunderground v.1.15,2014-01-24 10:20:00,
2014-01-24 05:30:00,6.0,-3.3,30.52,NW,320,4.0,4.0,65,0.00,,,0.00,0,Wunderground v.1.15,2014-01-24 10:30:00,
2014-01-24 05:35:00,6.1,-3.2,30.52,NNW,330,4.0,4.0,65,0.00,,,0.00,0,Wunderground v.1.15,2014-01-24 10:35:00,
2014-01-24 05:52:00,5.8,-3.4,30.53,NW,320,2.0,2.0,65,0.00,,,0.00,0,Wunderground v.1.15,2014-01-24 10:52:00,
2014-01-24 06:00:00,5.6,-3.6,30.53,NW,320,3.0,3.0,65,0.00,,,0.00,0,Wunderground v.1.15,2014-01-24 11:00:00,
2014-01-24 06:05:00,5.6,-3.6,30.53,NW,322,3.0,3.0,65,0.00,,,0.00,0,Wunderground v.1.15,2014-01-24 11:05:00,
2014-01-24 06:15:00,5.6,-3.6,30.53,WNW,287,3.0,4.0,65,0.00,,,0.00,0,Wunderground v.1.15,2014-01-24 11:15:00,
2014-01-24 06:25:00,5.5,-3.7,30.53,NW,311,3.0,3.0,65,0.00,,,0.00,0,Wunderground v.1.15,2014-01-24 11:25:00,
2014-01-24 06:35:00,5.5,-3.7,30.53,NW,324,2.0,3.0,65,0.00,,,0.00,0,Wunderground v.1.15,2014-01-24 11:35:00,
2014-01-24 06:45:00,5.3,-3.9,30.54,WNW,303,1.0,2.0,65,0.00,,,0.00,0,Wunderground v.1.15,2014-01-24 11:45:00,
2014-01-24 06:50:00,5.2,-4.0,30.54,West,270,1.0,2.0,65,0.00,,,0.00,0,Wunderground v.1.15,2014-01-24 11:50:00,
2014-01-24 07:00:00,4.9,-4.0,30.54,SSW,202,1.0,1.0,66,0.00,,,0.00,0,Wunderground v.1.15,2014-01-24 12:00:00,
2014-01-24 07:05:00,4.6,-4.3,30.55,SSW,201,1.0,1.0,66,0.00,,,0.00,0,Wunderground v.1.15,2014-01-24 12:05:00,
2014-01-24 07:15:00,3.9,-4.6,30.54,SSW,202,0.0,0.0,67,0.00,,,0.00,0,Wunderground v.1.15,2014-01-24 12:15:00,
2014-01-24 07:25:00,4.2,-4.0,30.54,WNW,283,2.0,2.0,68,0.00,,,0.00,5,Wunderground v.1.15,2014-01-24 12:25:00,
2014-01-24 07:35:00,4.5,-4.1,30.54,WNW,291,2.0,2.0,67,0.00,,,0.00,9,Wunderground v.1.15,2014-01-24 12:35:00,
2014-01-24 07:45:00,4.4,-4.1,30.54,WSW,241,1.0,2.0,67,0.00,,,0.00,14,Wunderground v.1.15,2014-01-24 12:45:00,
2014-01-24 07:55:00,4.2,-4.3,30.54,West,273,1.0,4.0,67,0.00,,,0.00,19,Wunderground v.1.15,2014-01-24 12:55:00,
2014-01-24 08:00:00,4.2,-4.3,30.54,WNW,291,1.0,1.0,67,0.00,,,0.00,21,Wunderground v.1.15,2014-01-24 13:00:00,
2014-01-24 08:10:00,4.3,-3.9,30.54,WSW,243,1.0,1.0,68,0.00,,,0.00,25,Wunderground v.1.15,2014-01-24 13:10:00,
2014-01-24 08:20:00,4.6,-4.0,30.54,SSW,203,1.0,2.0,67,0.00,,,0.00,28,Wunderground v.1.15,2014-01-24 13:20:00,
2014-01-24 08:30:00,5.0,-3.6,30.54,SW,233,1.0,2.0,67,0.00,,,0.00,32,Wunderground v.1.15,2014-01-24 13:30:00,
2014-01-24 08:40:00,5.6,-3.3,30.54,WNW,289,2.0,4.0,66,0.00,,,0.00,33,Wunderground v.1.15,2014-01-24 13:40:00,
2014-01-24 08:50:00,6.4,-2.5,30.54,NW,314,3.0,4.0,66,0.00,,,0.00,125,Wunderground v.1.15,2014-01-24 13:50:00,
2014-01-24 09:00:00,6.9,-2.7,30.54,WNW,299,4.0,5.0,64,0.00,,,0.00,239,Wunderground v.1.15,2014-01-24 14:00:00,
2014-01-24 09:10:00,7.2,-2.8,30.54,NW,306,4.0,4.0,63,0.00,,,0.00,274,Wunderground v.1.15,2014-01-24 14:10:00,
2014-01-24 09:20:00,7.8,-2.2,30.54,WNW,297,4.0,4.0,63,0.00,,,0.00,306,Wunderground v.1.15,2014-01-24 14:20:00,
2014-01-24 09:30:00,8.4,-2.0,30.54,NW,308,3.0,3.0,62,0.00,,,0.00,332,Wunderground v.1.15,2014-01-24 14:30:00,
2014-01-24 09:40:00,8.7,-2.0,30.54,NW,318,4.0,4.0,61,0.00,,,0.00,359,Wunderground v.1.15,2014-01-24 14:40:00,
2014-01-24 09:50:00,9.2,-1.5,30.54,NW,312,3.0,5.0,61,0.00,,,0.00,380,Wunderground v.1.15,2014-01-24 14:50:00,
2014-01-24 10:00:00,9.6,-1.5,30.53,WNW,295,4.0,4.0,60,0.00,,,0.00,392,Wunderground v.1.15,2014-01-24 15:00:00,
2014-01-24 10:10:00,10.2,-0.9,30.53,WNW,299,4.0,4.0,60,0.00,,,0.00,427,Wunderground v.1.15,2014-01-24 15:10:00,
2014-01-24 10:20:00,10.9,-0.3,30.52,NW,305,3.0,3.0,60,0.00,,,0.00,446,Wunderground v.1.15,2014-01-24 15:20:00,
2014-01-24 10:25:00,11.4,0.2,30.52,WNW,298,2.0,3.0,60,0.00,,,0.00,457,Wunderground v.1.15,2014-01-24 15:25:00,
2014-01-24 10:35:00,12.2,0.6,30.52,West,280,3.0,4.0,59,0.00,,,0.00,475,Wunderground v.1.15,2014-01-24 15:35:00,
2014-01-24 10:40:00,11.9,-0.4,30.52,NW,314,4.0,4.0,57,0.00,,,0.00,485,Wunderground v.1.15,2014-01-24 15:40:00,
2014-01-24 10:50:00,12.0,0.0,30.52,WNW,301,3.0,3.0,58,0.00,,,0.00,501,Wunderground v.1.15,2014-01-24 15:50:00,
2014-01-24 11:00:00,12.3,-0.1,30.52,NW,314,3.0,5.0,57,0.00,,,0.00,517,Wunderground v.1.15,2014-01-24 16:00:00,
2014-01-24 11:10:00,12.8,0.4,30.51,NNW,335,3.0,4.0,57,0.00,,,0.00,531,Wunderground v.1.15,2014-01-24 16:10:00,
2014-01-24 11:20:00,13.1,0.7,30.50,WNW,287,4.0,4.0,57,0.00,,,0.00,541,Wunderground v.1.15,2014-01-24 16:20:00,
2014-01-24 11:25:00,13.2,0.4,30.50,WNW,288,4.0,4.0,56,0.00,,,0.00,545,Wunderground v.1.15,2014-01-24 16:25:00,
2014-01-24 11:35:00,13.7,0.5,30.49,West,271,5.0,6.0,55,0.00,,,0.00,554,Wunderground v.1.15,2014-01-24 16:35:00,
2014-01-24 11:45:00,14.0,0.8,30.48,West,269,4.0,6.0,55,0.00,,,0.00,563,Wunderground v.1.15,2014-01-24 16:45:00,
2014-01-24 11:55:00,14.6,0.5,30.47,NNW,341,4.0,5.0,53,0.00,,,0.00,571,Wunderground v.1.15,2014-01-24 16:55:00,
2014-01-24 18:50:00,17.4,1.0,30.24,WSW,252,2.0,2.0,48,0.00,,,0.00,0,Wunderground v.1.15,2014-01-24 23:50:00,
2014-01-24 19:00:00,17.3,1.4,30.23,SW,233,2.0,7.0,49,0.00,,,0.00,0,Wunderground v.1.15,2014-01-25 00:00:00,
2014-01-24 19:10:00,17.1,0.7,30.23,WSW,252,2.0,2.0,48,0.00,,,0.00,0,Wunderground v.1.15,2014-01-25 00:10:00,
2014-01-24 19:20:00,16.8,0.9,30.22,West,265,2.0,2.0,49,0.00,,,0.00,0,Wunderground v.1.15,2014-01-25 00:20:00,
2014-01-24 19:30:00,16.4,0.1,30.21,NE,44,2.0,2.0,48,0.00,,,0.00,0,Wunderground v.1.15,2014-01-25 00:30:00,
2014-01-24 19:40:00,16.3,0.5,30.20,WSW,248,2.0,3.0,49,0.00,,,0.00,0,Wunderground v.1.15,2014-01-25 00:40:00,
2014-01-24 19:50:00,16.3,0.0,30.20,West,259,3.0,3.0,48,0.00,,,0.00,0,Wunderground v.1.15,2014-01-25 00:50:00,
2014-01-24 20:00:00,16.3,0.5,30.20,SW,224,2.0,2.0,49,0.00,,,0.00,0,Wunderground v.1.15,2014-01-25 01:00:00,
2014-01-24 20:10:00,16.3,0.5,30.19,WSW,241,2.0,2.0,49,0.00,,,0.00,0,Wunderground v.1.15,2014-01-25 01:10:00,
2014-01-24 20:15:00,16.2,-0.1,30.19,West,280,2.0,2.0,48,0.00,,,0.00,0,Wunderground v.1.15,2014-01-25 01:15:00,
2014-01-24 20:25:00,16.1,-0.2,30.17,SW,233,2.0,2.0,48,0.00,,,0.00,0,Wunderground v.1.15,2014-01-25 01:25:00,
2014-01-24 20:35:00,16.1,-0.2,30.16,SW,232,2.0,2.0,48,0.00,,,0.00,0,Wunderground v.1.15,2014-01-25 01:35:00,
2014-01-24 20:45:00,16.3,0.0,30.16,SW,235,2.0,4.0,48,0.00,,,0.00,0,Wunderground v.1.15,2014-01-25 01:45:00,
2014-01-24 20:55:00,16.2,-0.1,30.15,West,265,2.0,2.0,48,0.00,,,0.00,0,Wunderground v.1.15,2014-01-25 01:55:00,
2014-01-24 21:05:00,16.3,-0.4,30.15,SW,235,3.0,3.0,47,0.00,,,0.00,0,Wunderground v.1.15,2014-01-25 02:05:00,
2014-01-24 21:10:00,16.3,-0.4,30.14,WSW,255,3.0,3.0,47,0.00,,,0.00,0,Wunderground v.1.15,2014-01-25 02:10:00,
2014-01-24 21:20:00,16.4,-0.3,30.14,WSW,239,3.0,3.0,47,0.00,,,0.00,0,Wunderground v.1.15,2014-01-25 02:20:00,
2014-01-24 21:30:00,16.4,-0.3,30.13,SW,236,3.0,3.0,47,0.00,,,0.00,0,Wunderground v.1.15,2014-01-25 02:30:00,
2014-01-24 21:40:00,16.5,-0.3,30.12,WSW,254,3.0,4.0,47,0.00,,,0.00,0,Wunderground v.1.15,2014-01-25 02:40:00,
2014-01-24 21:50:00,16.7,0.4,30.11,SW,228,4.0,9.0,48,0.00,,,0.00,0,Wunderground v.1.15,2014-01-25 02:50:00,
2014-01-24 22:00:00,16.6,0.3,30.11,WSW,247,3.0,5.0,48,0.00,,,0.00,0,Wunderground v.1.15,2014-01-25 03:00:00,
2014-01-24 22:05:00,16.7,0.4,30.10,WSW,238,4.0,6.0,48,0.00,,,0.00,0,Wunderground v.1.15,2014-01-25 03:05:00,
2014-01-24 22:15:00,16.6,0.3,30.09,SW,222,4.0,5.0,48,0.00,,,0.00,0,Wunderground v.1.15,2014-01-25 03:15:00,
2014-01-24 22:25:00,16.6,-0.2,30.08,SW,231,4.0,4.0,47,0.00,,,0.00,0,Wunderground v.1.15,2014-01-25 03:25:00,
2014-01-24 22:35:00,16.8,0.5,30.08,WSW,257,5.0,5.0,48,0.00,,,0.00,0,Wunderground v.1.15,2014-01-25 03:35:00,
2014-01-24 22:45:00,16.8,0.0,30.07,WSW,249,4.0,4.0,47,0.00,,,0.00,0,Wunderground v.1.15,2014-01-25 03:45:00,
2014-01-24 22:55:00,17.0,0.7,30.07,NW,306,4.0,4.0,48,0.00,,,0.00,0,Wunderground v.1.15,2014-01-25 03:55:00,
2014-01-24 23:05:00,17.1,0.3,30.06,SW,219,4.0,4.0,47,0.00,,,0.00,0,Wunderground v.1.15,2014-01-25 04:05:00,
2014-01-24 23:15:00,17.2,0.8,30.06,WSW,237,3.0,9.0,48,0.00,,,0.00,0,Wunderground v.1.15,2014-01-25 04:15:00,
2014-01-24 23:25:00,17.2,0.4,30.05,SSW,213,4.0,6.0,47,0.00,,,0.00,0,Wunderground v.1.15,2014-01-25 04:25:00,
2014-01-24 23:30:00,17.1,0.3,30.05,West,270,3.0,3.0,47,0.00,,,0.00,0,Wunderground v.1.15,2014-01-25 04:30:00,
2014-01-24 23:40:00,16.9,0.6,30.04,SW,214,3.0,8.0,48,0.00,,,0.00,0,Wunderground v.1.15,2014-01-25 04:40:00,